STARLINK-1143, 45179

Orbit data source: Space-Track

STARLINK-1143, 45179 is a payload satellite owned by SpaceX/Seattle (US) in LEO that was launched on Mon, 17 Feb 2020 UTC via an FALCON 9 launch vehicle from the Air Force Eastern Test Range (AFETR). Payload-class satellites include a variety of spacecraft equipped with specific instruments for various scientific and technological missions. These include communications satellites like Starlink; space stations such as the ISS; scientific satellites like the Hubble; Earth observation satellites from companies like Planet Labs, Umbra, and HawkEye 360; GPS; miniature CubeSats for education and research; and military/defense satellites.

Loading next visibility...
Identifier
45179, 2020-012B
Orbit
LEO
Country
Flag of USUS
Related business
Manufacturer
SpaceX/Seattle
Mission
Partially operational Commercial Communications
Bus & Motor
STARLINK, Unknown motor
Mass
260 kg wet, ~248 kg dry
Launch date (UTC)
2020-02-17 (6 years ago)
Launch vehicle
FALCON 9
Launch site
Air Force Eastern Test Range (AFETR)
Object type
Payload
Rocket body
Debris
Shape & HBR
Box + 1 Pan, 10.1 m
Radar Cross Section
13.562 m², Large (>1 m²)

Expand to show TLE details & history
Last TLE update: 11 hours ago

TLE from 11 hours ago
0 STARLINK-1143
1 45179U 20012B   25288.35086060  .00096616  00000-0  25184-2 0  9994
2 45179  53.0539 306.5136 0006824 341.2412  18.8338 15.38058407313395
Epoch: 2025-10-15T08:25Z
TLE epoch observation values (Epoch: 2025-10-15T08:25:14.355Z)
Latitude
-0.00007°
Longitude
156.07755°
Altitude
448.332 km
Speed
7.647 km/s
True Right ascension
20h 26m 03s
True Declination
0° 00' 00"
Sunlit
Object was in daylight at epoch
Visualization orbit readout
Latitude
Unknown
Longitude
Unknown
Altitude
Unknown
Speed
Unknown
Apparent Right ascension
Unknown
Apparent Declination
Unknown
Sunlit
N/A
Visualization observer readout
Local Sidereal Time
14:14:39
Azimuth
Unknown
Elevation
Unknown
Doppler factor
Unknown
Orbital elements
Apogee altitude
456.787 km
Perigee altitude
447.465 km
Semi-major axis
6,830.263 km
Eccentricity
0.00068
Inclination
53.0539°
RAAN
306.5136°
Arg. of periapsis
341.2412°
True anomaly
18.85906°
Mean anomaly
18.8338°
Eccentric anomaly
18.84643°
Mean motion
3.84492 °/min
Orbital period
93.63 mins
BSTAR
0.0025184
Loading maneuver chart data...
Computing Atmospheric mass density...
Loading historical data...
Loading historical data...
Loading historical data...
Loading historical data...
Loading historical data...
Loading historical data...
Loading historical data...

Documentation

Showing up to 5 results
|